This demonstration page uses our WeatherBlox Daily Observations layout. Learn more.

Left ArrowRight Arrow

34.16533, -84.80231

Hourly Observations for February 1, 2015

Temp ( °F °C ) Dew Point ( °F °C ) Humidity (%) Winds ( mph kmh ) Pressure ( in mb ) Visibility ( mi km ) Precip ( " mm )
12:53 am 00:53 Clear 41 5 26 -3.3 55 55 E 5 7 30.25 1024 10 16 0.00 0.00
1:53 am 01:53 Clear 38 3.3 28 -2.2 68 68 Calm 30.24 1024 10 16 0.00 0.00
2:53 am 02:53 Clear 38 3.3 27 -2.8 65 65 E 3 6 30.22 1023 10 16 0.00 0.00
3:53 am 03:53 Clear 39 3.9 28 -2.2 65 65 Calm 30.20 1023 10 16 0.00 0.00
4:53 am 04:53 Clear 39 3.9 25 -3.9 57 57 ESE 5 7 30.19 1022 10 16 0.00 0.00
5:53 am 05:53 Clear 40 4.4 24 -4.4 53 53 ESE 3 6 30.18 1022 10 16 0.00 0.00
6:53 am 06:53 Clear 41 5 25 -3.9 53 53 SE 7 11 30.17 1022 10 16 0.00 0.00
7:53 am 07:53 Sunny 42 5.6 28 -2.2 58 58 E 5 7 30.18 1022 10 16 0.00 0.00
8:53 am 08:53 Sunny 43 6.1 31 -0.6 63 63 ENE 5 7 30.16 1021 10 16 0.00 0.00
9:53 am 09:53 Cloudy 48 8.9 36 2.2 63 63 VRB 5 7 30.18 1022 10 16 0.00 0.00
10:17 am 10:17 Cloudy 48 8.9 37 2.8 66 66 SSE 3 6 30.18 1022 10 16 0.00 0.00
10:53 am 10:53 Cloudy 50 10 39 3.9 66 66 SSE 6 9 30.15 1021 10 16 0.00 0.00
11:53 am 11:53 Cloudy 51 10.6 40 4.4 66 66 VRB 7 11 30.11 1020 10 16 0.00 0.00
12:53 pm 12:53 Cloudy with Light Rain 51 10.6 43 6.1 74 74 SE 6 9 30.06 1018 8 13 0.00 0.03
1:27 pm 13:27 Cloudy with Light Rain 51 10.6 45 7.2 80 80 SE 8 13 30.06 1018 7 11 0.01 0.25
1:53 pm 13:53 Cloudy with Light Rain 50 10 46 7.8 86 86 SE 6 9 29.98 1015 7 11 0.04 1.02
2:26 pm 14:26 Cloudy with Light Rain 50 10 47 8.3 89 89 SE 6 9 30.00 1016 5 8 0.02 0.51
2:53 pm 14:53 Cloudy with Light Rain 51 10.6 47 8.3 86 86 VRB 5 7 29.98 1015 5 8 0.06 1.52
3:21 pm 15:21 Cloudy with Light Rain 50 10 48 8.9 93 93 SE 6 9 30.00 1016 5 8 0.04 1.02
3:53 pm 15:53 Cloudy 51 10.6 48 8.9 89 89 SE 8 13 29.93 1014 10 16 0.05 1.27
4:48 pm 16:48 Cloudy 52 11 48 9 88 88 SSE 10 17 29.94 1014 10 16 0.00 0.00
4:53 pm 16:53 Cloudy 52 11.1 48 8.9 86 86 SE 7 11 29.90 1013 10 16 0.00 0.00
5:53 pm 17:53 Cloudy 52 11.1 49 9.4 89 89 VRB 6 9 29.90 1012 10 16 0.00 0.03
6:04 pm 18:04 Cloudy 53 11.7 49 9.4 86 86 VRB 5 7 29.94 1014 10 16 0.00 0.00
6:40 pm 18:40 Cloudy 53 11.7 50 10 89 89 SSE 8 13 29.94 1014 10 16 0.00 0.00
6:53 pm 18:53 Cloudy with Light Rain 53 11.7 50 10 89 89 SE 5 7 29.87 1012 10 16 0.00 0.03
7:14 pm 19:14 Cloudy with Light Rain 54 12.2 51 10.6 90 90 SSE 8 13 29.91 1013 7 11 0.03 0.76
7:53 pm 19:53 Cloudy with Light Rain 54 12.2 51 10.6 90 90 SSE 8 13 29.83 1010 8 13 0.04 1.02
8:07 pm 20:07 Cloudy with Light Rain 54 12.2 51 10.6 90 90 SSE 7 11 29.83 1010 7 11 0.00 0.03
8:32 pm 20:32 Cloudy 55 12.8 52 11.1 90 90 S 8 13 29.83 1010 8 13 0.03 0.76
8:44 pm 20:44 Cloudy with Light Rain 55 12.8 52 11.1 90 90 S 12 19 29.80 1009 5 8 0.09 2.29
8:53 pm 20:53 Cloudy with Rain 55 12.8 52 11.1 90 90 S 13 20 29.80 1009 5 8 0.12 3.05
9:53 pm 21:53 Cloudy 55 12.8 52 11.1 90 90 S 9 15 29.77 1008 10 16 0.08 2.03
10:53 pm 22:53 Cloudy with Heavy Rain 56 13.3 53 11.7 90 90 S 13 20 29.74 1007 4 6 0.04 1.02
11:05 pm 23:05 Cloudy with Rain 55 12.8 53 11.7 93 93 VRB 5 7 29.77 1008 3 5 0.06 1.52
11:13 pm 23:13 Cloudy with Rain 55 12.8 53 11.7 93 93 S 13 20 29.77 1008 4 6 0.08 2.03
11:53 pm 23:53 Cloudy with Light Rain 56 13.3 53 11.7 90 90 S 14 22 29.71 1006 10 16 0.12 3.05

Powered by AerisWeather